Météo par heure à Kyyazh

Ce jour, 25 Juillet, Dimanche

Heure Température Précipitation Vent Pression Humidité
00:00 +20°C° 0 mm 2 m/s 746 mmHg 63%
01:00 +20°C° 0 mm 2 m/s 746 mmHg 65%
02:00 +20°C° 0 mm 2 m/s 746 mmHg 66%
03:00 +19°C° 0 mm 2 m/s 746 mmHg 67%
04:00 +19°C° 0 mm 2 m/s 746 mmHg 69%
05:00 +18°C° 0 mm 2 m/s 746 mmHg 71%
06:00 +20°C° 0 mm 2 m/s 746 mmHg 65%
07:00 +21°C° 0 mm 2 m/s 746 mmHg 60%
08:00 +24°C° 0 mm 3 m/s 746 mmHg 55%
09:00 +25°C° 0 mm 3 m/s 746 mmHg 50%
10:00 +26°C° 0 mm 3 m/s 746 mmHg 45%
11:00 +28°C° 0 mm 4 m/s 747 mmHg 40%
12:00 +28°C° 0 mm 4 m/s 746 mmHg 38%
13:00 +29°C° 0 mm 3 m/s 746 mmHg 36%
14:00 +30°C° 0 mm 3 m/s 746 mmHg 34%
15:00 +30°C° 0 mm 4 m/s 746 mmHg 35%
16:00 +29°C° 0 mm 4 m/s 746 mmHg 35%
17:00 +29°C° 0 mm 4 m/s 746 mmHg 36%
18:00 +27°C° 0 mm 3 m/s 746 mmHg 44%
19:00 +26°C° 0 mm 3 m/s 746 mmHg 52%
20:00 +24°C° 0 mm 3 m/s 746 mmHg 59%
21:00 +22°C° 0 mm 3 m/s 746 mmHg 62%
22:00 +22°C° 0 mm 3 m/s 746 mmHg 65%
23:00 +21°C° 0 mm 3 m/s 746 mmHg 68%

Demain, 26 Juillet, Lundi

Heure Température Précipitation Vent Pression Humidité
00:00 +20°C° 0 mm 3 m/s 746 mmHg 68%
01:00 +20°C° 0 mm 3 m/s 746 mmHg 68%
02:00 +19°C° 0 mm 3 m/s 746 mmHg 68%
03:00 +19°C° 0 mm 4 m/s 746 mmHg 67%
04:00 +19°C° 0 mm 4 m/s 746 mmHg 66%
05:00 +19°C° 0 mm 4 m/s 746 mmHg 64%
06:00 +20°C° 0 mm 4 m/s 746 mmHg 61%
07:00 +22°C° 0 mm 5 m/s 746 mmHg 58%
08:00 +23°C° 0 mm 5 m/s 746 mmHg 55%
09:00 +25°C° 0 mm 5 m/s 746 mmHg 51%
10:00 +27°C° 0 mm 6 m/s 746 mmHg 48%
11:00 +29°C° 0 mm 6 m/s 746 mmHg 44%
12:00 +28°C° 0 mm 5 m/s 746 mmHg 46%
13:00 +28°C° 0 mm 5 m/s 746 mmHg 48%
14:00 +28°C° 0 mm 5 m/s 745 mmHg 49%
15:00 +29°C° 0 mm 5 m/s 745 mmHg 47%
16:00 +30°C° 0 mm 6 m/s 745 mmHg 44%
17:00 +32°C° 0 mm 6 m/s 745 mmHg 42%
18:00 +28°C° 0.2 mm 5 m/s 745 mmHg 52%
19:00 +26°C° 0.2 mm 5 m/s 745 mmHg 62%
20:00 +23°C° 0.2 mm 4 m/s 745 mmHg 72%
21:00 +21°C° 0.2 mm 4 m/s 745 mmHg 76%
22:00 +20°C° 0.2 mm 4 m/s 745 mmHg 81%
23:00 +19°C° 0.2 mm 4 m/s 745 mmHg 86%

Après-demain, 27 Juillet, Mardi

Heure Température Précipitation Vent Pression Humidité
00:00 +19°C° 0.6 mm 4 m/s 744 mmHg 87%
01:00 +19°C° 0.6 mm 4 m/s 744 mmHg 88%
02:00 +18°C° 0.6 mm 4 m/s 744 mmHg 90%
03:00 +18°C° 0.6 mm 4 m/s 744 mmHg 90%
04:00 +18°C° 0.6 mm 3 m/s 744 mmHg 91%
05:00 +17°C° 0.6 mm 3 m/s 744 mmHg 92%
06:00 +19°C° 0.7 mm 3 m/s 744 mmHg 87%
07:00 +21°C° 0.7 mm 3 m/s 744 mmHg 82%
08:00 +22°C° 0.7 mm 3 m/s 744 mmHg 77%
09:00 +25°C° 0 mm 3 m/s 744 mmHg 70%
10:00 +28°C° 0 mm 3 m/s 744 mmHg 62%
11:00 +30°C° 0 mm 3 m/s 744 mmHg 55%
12:00 +32°C° 0 mm 4 m/s 743 mmHg 51%
13:00 +33°C° 0 mm 4 m/s 743 mmHg 46%
14:00 +34°C° 0 mm 5 m/s 743 mmHg 42%
15:00 +33°C° 0 mm 5 m/s 743 mmHg 45%
16:00 +32°C° 0 mm 5 m/s 743 mmHg 48%
17:00 +30°C° 0 mm 5 m/s 743 mmHg 51%
18:00 +29°C° 0.2 mm 4 m/s 743 mmHg 60%
19:00 +27°C° 0.2 mm 4 m/s 743 mmHg 69%
20:00 +25°C° 0.2 mm 3 m/s 743 mmHg 78%
21:00 +24°C° 0.2 mm 3 m/s 743 mmHg 83%
22:00 +22°C° 0.2 mm 3 m/s 744 mmHg 89%
23:00 +20°C° 0.2 mm 3 m/s 745 mmHg 94%

28 Juillet, Mercredi

Heure Température Précipitation Vent Pression Humidité
00:00 +20°C° 0 mm 2 m/s 744 mmHg 94%
01:00 +20°C° 0 mm 2 m/s 744 mmHg 94%
02:00 +19°C° 0 mm 2 m/s 744 mmHg 94%
03:00 +19°C° 0 mm 2 m/s 744 mmHg 94%
04:00 +18°C° 0 mm 2 m/s 745 mmHg 94%
05:00 +18°C° 0 mm 2 m/s 745 mmHg 94%
06:00 +20°C° 0 mm 2 m/s 745 mmHg 87%
07:00 +21°C° 0 mm 2 m/s 745 mmHg 80%
08:00 +24°C° 0 mm 1 m/s 745 mmHg 72%
09:00 +25°C° 0 mm 1 m/s 745 mmHg 64%
10:00 +27°C° 0 mm 2 m/s 745 mmHg 56%
11:00 +29°C° 0 mm 2 m/s 745 mmHg 47%
12:00 +30°C° 0 mm 2 m/s 745 mmHg 45%
13:00 +30°C° 0 mm 2 m/s 745 mmHg 43%
14:00 +31°C° 0 mm 2 m/s 744 mmHg 40%
15:00 +31°C° 0 mm 2 m/s 744 mmHg 41%
16:00 +31°C° 0 mm 2 m/s 744 mmHg 41%
17:00 +31°C° 0 mm 2 m/s 744 mmHg 42%
18:00 +29°C° 0 mm 1 m/s 744 mmHg 48%
19:00 +28°C° 0 mm 1 m/s 743 mmHg 53%
20:00 +26°C° 0 mm 1 m/s 743 mmHg 59%
21:00 +25°C° 0 mm 1 m/s 743 mmHg 61%
22:00 +25°C° 0 mm 2 m/s 743 mmHg 63%
23:00 +24°C° 0 mm 2 m/s 743 mmHg 65%

29 Juillet, Jeudi

Heure Température Précipitation Vent Pression Humidité
00:00 +24°C° 0.1 mm 2 m/s 743 mmHg 69%
01:00 +23°C° 0.1 mm 2 m/s 743 mmHg 73%
02:00 +22°C° 0.1 mm 1 m/s 743 mmHg 77%
03:00 +22°C° 0.6 mm 1 m/s 743 mmHg 80%
04:00 +21°C° 0.6 mm 1 m/s 743 mmHg 84%
05:00 +21°C° 0.6 mm 1 m/s 743 mmHg 88%
06:00 +23°C° 0 mm 1 m/s 743 mmHg 83%
07:00 +24°C° 0 mm 1 m/s 743 mmHg 78%
08:00 +25°C° 0 mm 1 m/s 743 mmHg 73%
09:00 +27°C° 0 mm 2 m/s 743 mmHg 66%
10:00 +29°C° 0 mm 2 m/s 743 mmHg 60%
11:00 +30°C° 0 mm 3 m/s 744 mmHg 53%
12:00 +32°C° 0 mm 4 m/s 743 mmHg 50%
13:00 +33°C° 0 mm 4 m/s 743 mmHg 47%
14:00 +34°C° 0 mm 5 m/s 743 mmHg 44%
15:00 +33°C° 0 mm 5 m/s 743 mmHg 43%
16:00 +33°C° 0 mm 5 m/s 743 mmHg 43%
17:00 +33°C° 0 mm 5 m/s 743 mmHg 43%
18:00 +30°C° 0 mm 4 m/s 743 mmHg 49%
19:00 +28°C° 0 mm 4 m/s 743 mmHg 56%
20:00 +26°C° 0 mm 3 m/s 743 mmHg 63%
21:00 +25°C° 0 mm 3 m/s 744 mmHg 66%
22:00 +22°C° 0 mm 3 m/s 744 mmHg 69%
23:00 +21°C° 0 mm 2 m/s 744 mmHg 72%

30 Juillet, Vendredi

Heure Température Précipitation Vent Pression Humidité
00:00 +21°C° 0 mm 2 m/s 744 mmHg 74%
01:00 +21°C° 0 mm 1 m/s 744 mmHg 75%
02:00 +21°C° 0 mm 1 m/s 744 mmHg 77%
03:00 +19°C° 0 mm 0 m/s 744 mmHg 77%
04:00 +19°C° 0 mm 0 m/s 744 mmHg 77%
05:00 +18°C° 0 mm 0 m/s 744 mmHg 77%
06:00 +20°C° 0 mm 0 m/s 744 mmHg 71%
07:00 +24°C° 0 mm 1 m/s 744 mmHg 64%
08:00 +26°C° 0 mm 1 m/s 744 mmHg 58%
09:00 +28°C° 0 mm 1 m/s 744 mmHg 52%
10:00 +29°C° 0 mm 1 m/s 744 mmHg 47%
11:00 +31°C° 0 mm 1 m/s 744 mmHg 41%
12:00 +32°C° 0 mm 2 m/s 743 mmHg 39%
13:00 +34°C° 0 mm 2 m/s 743 mmHg 36%
14:00 +35°C° 0 mm 3 m/s 743 mmHg 34%
15:00 +35°C° 0 mm 3 m/s 742 mmHg 34%
16:00 +35°C° 0 mm 3 m/s 742 mmHg 35%
17:00 +34°C° 0 mm 3 m/s 742 mmHg 35%
18:00 +31°C° 0 mm 3 m/s 742 mmHg 42%
19:00 +30°C° 0 mm 3 m/s 741 mmHg 49%
20:00 +28°C° 0 mm 2 m/s 741 mmHg 56%
21:00 +26°C° 0.1 mm 3 m/s 741 mmHg 62%
22:00 +25°C° 0.1 mm 3 m/s 741 mmHg 67%
23:00 +23°C° 0.1 mm 4 m/s 741 mmHg 73%
Voir plus

Nous avons besoin de votre consentement

Meteoprog et ses fournisseurs de services peuvent stocker et accéder à des données personnelles telles que des cookies, des identifiants d'appareils ou d'autres technologies similaires sur votre appareil et traiter ces données pour personnaliser le contenu et les publicités, ainsi que pour fournir des fonctionnalités de médias sociaux et analyser le trafic.

  • Stocker et/ou accéder à des informations sur votre appareil

    Des cookies, des identifiants d'appareils ou d'autres informations peuvent être stockés ou accessibles sur votre appareil aux fins indiquées ci-dessus.

  • Annonces et contenus personnalisés, mesure des annonces et des contenus, connaissance de l'audience et développement de produits

    Les annonces et le contenu peuvent être personnalisés en fonction d'un profil. D'autres données peuvent être ajoutées pour mieux personnaliser les annonces et le contenu. Les performances des publicités et du contenu peuvent être mesurées. Il est possible d'obtenir des informations sur le public qui a vu les publicités et le contenu. Ces données peuvent être utilisées pour développer ou améliorer l'expérience de l'utilisateur, les systèmes et les logiciels.

En cliquant sur "J'accepte", vous autorisez l'utilisation de cookies, des identifiants d'appareils, des balises web ou d'autres technologies similaires. Vos paramètres peuvent être modifiés dans le navigateur de votre appareil.

Dans certains cas, des intérêts légitimes peuvent être invoqués plutôt qu'un consentement. Vous pouvez en savoir plus à ce sujet dans notre Politique de confidentialité et de cookies.